Погода Ерофей Павлович

Погода Ерофей Павлович : погода сейчас, прогноз погоды и архив. Всё, что Вы хотите узнать о погоде Ерофей Павлович!

Хотите узнать прогноз погоды Ерофей Павлович? Тогда Вам сюда: Погода Ерофей Павлович

Поиск расширенной информации на нашем сайте:

Другие новости

Новости СМИ2

Главная страница сайта

Новости сайта

03.07.2017

Напоминаем, что на нашем специализированном сайте Метеоцентр.Азия вы можете получить высокодетализированные автоматические прогнозы погоды по пунктам России, СНГ и мира в авиационном формате (включающие направление и скорость ветра, видимость, явления погоды, количество и форму облачности, нижнюю и верхнюю границу облачности).

Рекомендуем: купить квартиру в Челябинске

Погода Ерофей Павлович - сегодня

Время (UTC), дата Ветер
(°,м/с) 
Видим.   Явления Облачность Т
(°С)
Тd
(°С)
f(%) Тe
(°С)
Pmin
(гПа)
dP
(гПа)
Po
(мм)
O2
(г/м3)
Тmin Tmax R s Состояние
почвы
15 14.08.18 290 (З) н/о    8/0 верхняя 
[Ci]
+13.8 +12.2 90 +20  1018.5  1.7  718  273           
18 14.08.18 360 (С) н/о    10/0 средняя 
[Ac As]
+12.3 +11.1 92 +18  1019.3  0.4  719  275           
21 14.08.18 360 (С) 20000 м    10/8 600 м кучево-дожд., верхняя 
[Cb cap|Ci]
+11.4 +10.1 92 +14  1020.6  719  276           
00 15.08.18 150 (ЮВ) 20000 м    10/1 600 м кучево-дожд., средняя, верхняя 
[Cb cap|Ac cast|Ci]
+17.4 +13.1 76 +26  1020  0.8  720  270  +11.2        влажная 
03 15.08.18 170 (Ю) 20000 м    ясно 
+21.4 +13.6 61 +29  1018.9  -0.3  720  266           
06 15.08.18 170 (Ю) 20000 м    ясно 
+25.1 +10.6 40 +28  1016.8  -1.3  719  263           
09 15.08.18 190 (Ю) 20000 м    10/0 верхняя 
[Ci fib]
+25.6 +12 43 +30  1015.4  -1.2  718  262           
15 15.08.18 350 (С) н/о    10/0 верхняя 
[Ci]
+14.8 +12.7 87 +22  1017.2  -0.1  718  272           
18 15.08.18 360 (С) н/о    н/о 
+13.3 +11.5 89 +18  1016.8  -0.7  717  273           
21 15.08.18 тихо ()   10 км    10/0 средняя, верхняя 
[Ac lent|Ci]
+11 +9.5 90 +12  1016.6  -0.7  716  276           
00 16.08.18 230 (ЮЗ) 20000 м    10/0 средняя, верхняя 
[Ac As|Ci]
+18.2 +12.9 71 +26  1015  0.1  717  268  +10.5        влажная 
03 16.08.18 120 (ЮВ) 20000 м    10/0 верхняя 
[Ci]
+22.5 +14.7 61 +32  1012.4  -1.6  715  263           
06 16.08.18 140 (ЮВ) 20000 м    10/5 600 м кучево-дожд., верхняя 
[Cb cap|Ci]
+26.3 +16.2 54 +39  1008.9  -2.5  713  259           
09 16.08.18 130 (ЮВ) 20000 м    10/3 600 м кучево-дожд., средняя, верхняя 
[Cb cap|Ac cast|Ci]
+26.3 +16.6 55 +39  1006.8  -2  712  258           
15 16.08.18 тихо ()   н/о    10/10 600 м кучево-дожд. 
[Cb cap]
+18.5 +16.2 86 +31  1006.3  -1.3  711  265           
18 16.08.18 210 (ЮЗ) н/о    10/10 600 м кучево-дожд. 
[Cb cap]
+19 +15.3 79 +32  1005.4  -0.7  710  264           
21 16.08.18 020 (С) 20000 м  слаб. ливневой дождь  10/10 600 м кучево-дожд. 
[Cb cap]
+17 +15.3 90 +29  1003.9  -1.8  709  265           
00 17.08.18 130 (ЮВ) 4000 м  слаб. ливневой дождь  10/10 300 м кучево-дожд. 
[Cb cap]
+15.7 +14.3 91 +25  1003.4  -0.8  708  267  +15.7      влажная 
03 17.08.18 130 (ЮВ) 20000 м  слаб. ливневой дождь  10/10 300 м кучево-дожд. 
[Cb cap]
+16.5 +15 91 +27  1002.4  -0.7  707  266           
06 17.08.18 050 (СВ) 4000 м  в посл. час ливневой дождь  9/9 300 м кучево-дожд. 
[Cb cap]
+19.9 +15.8 77 +33  1000.7  -0.9  707  262           
09 17.08.18 150 (ЮВ) 20000 м  {ливн. осадки}  8/8 600 м кучево-дожд. 
[Cb cap]
+20.1 +16 77 +32  1000.1  -0.6  706  262           
12 17.08.18 010 (С) 20000 м  {ливн. осадки}  8/8 600 м кучево-дожд. 
[Cb cap]
+16.7 +15.1 90 +28  1001.5  0.7  707  265    +21.5     
15 17.08.18 тихо ()   н/о  туман  6/6 600 м кучево-дожд. 
[Cb cap]
+13.4 +12.3 93 +19  1002  -0.3  707  269           
18 17.08.18 310 (СЗ) н/о  туман  6/6 600 м кучево-дожд. 
[Cb cap]
+11.4 +10.5 94 +16  1001.9  -0.5  706  271           
21 17.08.18 220 (ЮЗ) 0500 м  туман  ?/?  
+8.2 +7.1 93 +9  1002.6  -0.1  706  275           
Время (UTC), дата Ветер
(°,м/с) 
Видим.   Явления Облачность Т
(°С)
Тd
(°С)
f(%) Тe
(°С)
Pmin
(гПа)
dP
(гПа)
Po
(мм)
O2
(г/м3)
Тmin Tmax R s Состояние
почвы

Для получения пояснительной информации подведите курсор к названию столбца.

ПОГОДА Ерофей Павлович - архив

Всё, что Вы хотите узнать о погоде Ерофей Павлович - удобно и подробно!

Выберите нужную дату (начиная с 1 января 2015* года) и нажмите кнопку "Найти".
Будут отображены архивные сводки погоды по пункту Ерофей Павлович, начиная с указанной даты.


Отображать данные в формате CSV (для использования в таблицах Excel)


Внимание! Наш архив погоды предназначен исключительно для личного некоммерческого использования в познавательных целях. Если Вам необходимы официальные справки о состоянии погоды (для производственных, юридических, коммерческих и т.п. целей), обращайтесь в органы Росгидромета.

*Примечание: данная дата относится к архиву по метеостанциям СССР (Россия, СНГ, Балтия).
Архив по метеостанциям Зарубежной Европы и Азии (кроме Китая) хранится 10 дней, по другим регионам земного шара (Китай, Африка, Америка, Австралия, Океания) - 1 день.

Ерофей Павлович - район местоположения метеостанции


Название, широта, долгота, высота метеостанции:
Ерофей Павлович 54°ш. 121.9°д. 522 м над ур. моря [Российская Федерация]

Дополнительная информация

В oтличие oт бoльшинства пoгoдных сайтoв мы публикуем пoдрoбную метеoинфoрмацию в детальнoм прoфессиoнальнoм фoрмате.

Характеристики температуры и влажнoсти вoздуха измеряются на высoте 2 м в тени вдали oт зданий и деревьев.
Скoрoсть ветра измеряется на высoте 10 м (на урoвне рoста челoвека скoрoсть ветра ниже в 1.5-2 раза). Если метеoстанция нахoдится в гoрoде или в лесу, тo скoрoсть ветра занижена на 2-4 м/с пo сравнению с oткрытым местoм. Скoрoсть ветра над акватoриями крупных рек и oзёр, а также на вершинах хoлмoв на 2-5 м/с выше, чем в oбычных услoвиях.
Атмoсфернoе давление в разных тoчках местнoсти мoжет значительнo oтличаться oт давления на метеoстанции, в зависимoсти oт услoвий рельефа (при пoдъёме на 10 м давление пoнижается примернo на 1 мм рт.ст.).